Chevak, AK

12:33 AM AKDT on August 24, 2017 (GMT -0800)
Chevak

Weather History for PAVA - July, 2013

Change the Weather History Date:

Tuesday, July 9, 2013

  Actual Average (PAHP) Record (PAHP)
Temperature  
Mean Temperature 48 °F -  
Max Temperature 55 °F 52 °F 71 °F (2007)
Min Temperature 42 °F 45 °F 39 °F (2001)
Degree Days  
Heating Degree Days 16    
Moisture  
Dew Point 43 °F    
Average Humidity 93    
Maximum Humidity 100    
Minimum Humidity 64    
Precipitation  
Precipitation 0.00 in - - ()
Sea Level Pressure  
Sea Level Pressure 30.09 in    
Wind  
Wind Speed 15 mph (WNW)    
Max Wind Speed 22 mph    
Max Gust Speed 28 mph    
Visibility 3 miles    
Events Fog , Rain    
Averages and records for this station are not official NWS values.
T = Trace of Precipitation, MM = Missing Value Source: NWS Daily Summary

Daily Weather History Graph

Daily Weather History Graph

Search for Another Location

Airport or City:

Trip Planner

Search our weather history database for the weather conditions in past years. The results will help you decide how hot, cold, wet, or windy it might be!

Date:

Astronomy

Jul. 09, 2013 Rise Set
Actual Time 5:39 AM AKDT 12:34 AM AKDT
Civil Twilight 3:33 AM AKDT 2:33 AM AKDT
Nautical Twilight Sun does not set Sun does not set
Astronomical Twilight Sun does not set Sun does not set
Moon 8:11 AM AKDT (7/9) No Moon Set
Length of Visible Light 23h 00m
Length of Day
18h 55m
New Moon, 2% of the Moon is Illuminated
Jul 9
New Moon
Jul 15
First Quarter
Jul 22
Full
Jul 29
Last Quarter
Aug 6
New

Hourly Weather History & Observations

Time (AKDT) Temp. Windchill Dew Point Humidity Pressure Visibility Wind Dir Wind Speed Gust Speed Precip Events Conditions
12:17 AM 44.6 °F 38.1 °F 42.8 °F 93% 29.98 in 10.0 mi NW 13.8 mph - N/A   Overcast
12:57 AM 44.1 °F 37.7 °F 44.1 °F 100% 30.00 in 10.0 mi WNW 12.7 mph - N/A   Overcast
1:11 AM 44.6 °F 37.8 °F 42.8 °F 93% 30.00 in 1.0 mi NW 15.0 mph - N/A   Overcast
1:15 AM 44.6 °F 37.4 °F 42.8 °F 93% 30.00 in 0.8 mi NW 16.1 mph - N/A   Overcast
1:22 AM 44.6 °F 37.8 °F 42.8 °F 93% 30.00 in 1.2 mi WNW 15.0 mph - N/A   Overcast
1:27 AM 42.8 °F 35.1 °F 42.8 °F 100% 30.01 in 1.0 mi WNW 16.1 mph - N/A   Overcast
1:30 AM 42.8 °F 35.4 °F 42.8 °F 100% 30.01 in 1.2 mi WNW 15.0 mph - N/A   Overcast
1:34 AM 42.8 °F 35.1 °F 42.8 °F 100% 30.00 in 0.8 mi WNW 16.1 mph - N/A   Overcast
1:44 AM 42.8 °F 34.8 °F 42.8 °F 100% 30.01 in 1.2 mi WNW 17.3 mph - N/A   Overcast
1:57 AM 42.8 °F 35.1 °F 42.8 °F 100% 30.01 in 1.0 mi NW 16.1 mph - N/A   Overcast
2:33 AM 42.8 °F 36.6 °F 42.8 °F 100% 30.02 in 1.2 mi WNW 11.5 mph - 0.00 in Rain Light Rain
2:35 AM 43.0 °F 36.0 °F 43.0 °F 100% 30.03 in 1.2 mi WNW 13.8 mph - 0.00 in Rain Light Rain
2:47 AM 44.6 °F 37.4 °F 42.8 °F 93% 30.03 in 1.0 mi WNW 16.1 mph - 0.00 in Rain Light Rain
2:53 AM 44.6 °F 36.6 °F 42.8 °F 93% 30.02 in 1.2 mi NW 19.6 mph - 0.00 in Rain Light Rain
2:57 AM 44.1 °F 36.8 °F 43.0 °F 96% 30.04 in 1.8 mi NW 16.1 mph - 0.00 in Rain Light Rain
3:00 AM 42.8 °F 35.1 °F 42.8 °F 100% 30.03 in 2.0 mi WNW 16.1 mph - 0.00 in Rain Light Rain
3:05 AM 44.6 °F 38.4 °F 42.8 °F 93% 30.03 in 1.8 mi WNW 12.7 mph - 0.00 in   Overcast
3:19 AM 42.8 °F 35.8 °F 42.8 °F 100% 30.04 in 1.0 mi WNW 13.8 mph - 0.00 in   Overcast
3:30 AM 42.8 °F 35.8 °F 42.8 °F 100% 30.04 in 0.8 mi NW 13.8 mph - 0.00 in   Overcast
3:36 AM 44.6 °F 37.8 °F 42.8 °F 93% 30.04 in 1.0 mi NW 15.0 mph - 0.00 in   Overcast
3:45 AM 44.6 °F 39.2 °F 42.8 °F 93% 30.04 in 1.2 mi WNW 10.4 mph - 0.00 in   Overcast
3:57 AM 44.1 °F 38.6 °F 43.0 °F 96% 30.06 in 1.2 mi WNW 10.4 mph - 0.00 in   Overcast
4:01 AM 44.6 °F 38.4 °F 42.8 °F 93% 30.05 in 1.0 mi WNW 12.7 mph - N/A   Overcast
4:09 AM 44.6 °F 39.7 °F 42.8 °F 93% 30.05 in 1.2 mi WNW 9.2 mph - N/A   Overcast
4:40 AM 44.6 °F 39.2 °F 42.8 °F 93% 30.05 in 1.0 mi WNW 10.4 mph - N/A   Overcast
4:48 AM 44.6 °F 38.8 °F 42.8 °F 93% 30.06 in 0.8 mi WNW 11.5 mph - N/A   Overcast
4:57 AM 43.0 °F 36.4 °F 43.0 °F 100% 30.07 in 0.8 mi WNW 12.7 mph - N/A   Overcast
5:02 AM 42.8 °F 36.6 °F 42.8 °F 100% 30.06 in 0.5 mi West 11.5 mph - N/A Fog Fog
5:16 AM 42.8 °F 35.8 °F 42.8 °F 100% 30.06 in 0.2 mi WNW 13.8 mph - N/A Fog Fog
5:30 AM 42.8 °F 35.8 °F 42.8 °F 100% 30.06 in 0.5 mi WNW 13.8 mph - 0.00 in Fog , Rain Light Rain
5:50 AM 42.8 °F 35.1 °F 42.8 °F 100% 30.07 in 0.2 mi WNW 16.1 mph - 0.00 in Fog , Rain Light Rain
5:57 AM 43.0 °F 35.4 °F 42.1 °F 97% 30.08 in 0.2 mi West 16.1 mph - 0.00 in Fog , Rain Light Rain
6:00 AM 42.8 °F 35.8 °F 42.8 °F 100% 30.08 in 0.5 mi West 13.8 mph - 0.00 in Fog , Rain Light Rain
6:25 AM 42.8 °F 37.0 °F 42.8 °F 100% 30.08 in 0.2 mi WNW 10.4 mph - 0.00 in Fog Fog
6:43 AM 42.8 °F 36.2 °F 42.8 °F 100% 30.08 in 0.5 mi WNW 12.7 mph - 0.00 in Fog , Rain Light Rain
6:51 AM 42.8 °F 37.0 °F 42.8 °F 100% 30.09 in 0.2 mi WNW 10.4 mph - 0.00 in Fog , Rain Light Rain
6:54 AM 42.8 °F 36.2 °F 42.8 °F 100% 30.09 in 0.5 mi WNW 12.7 mph - 0.00 in Fog , Rain Light Rain
6:57 AM 42.8 °F 37.0 °F 42.8 °F 100% 30.09 in 0.2 mi West 10.4 mph - 0.00 in Fog , Rain Light Rain
6:59 AM 42.1 °F 36.1 °F 42.1 °F 100% 30.10 in 0.2 mi West 10.4 mph - 0.00 in Fog , Rain Light Rain
7:15 AM 42.8 °F 35.4 °F 42.8 °F 100% 30.09 in 0.5 mi West 15.0 mph - 0.00 in Fog Fog
7:18 AM 42.8 °F 35.8 °F 42.8 °F 100% 30.09 in 0.2 mi West 13.8 mph - 0.00 in Fog , Rain Light Rain
7:43 AM 42.8 °F 35.8 °F 42.8 °F 100% 30.09 in 0.5 mi WNW 13.8 mph - 0.00 in Fog , Rain Light Rain
7:57 AM 42.1 °F 34.5 °F 42.1 °F 100% 30.10 in 0.5 mi West 15.0 mph - 0.00 in Fog , Rain Light Rain
8:16 AM 42.8 °F 35.8 °F 42.8 °F 100% 30.10 in 0.2 mi West 13.8 mph - 0.00 in Fog , Rain Light Rain
8:24 AM 42.8 °F 35.4 °F 42.8 °F 100% 30.10 in 0.5 mi West 15.0 mph - 0.00 in Fog , Rain Light Rain
8:57 AM 42.1 °F 34.9 °F 42.1 °F 100% 30.12 in 0.5 mi West 13.8 mph - 0.00 in Fog , Rain Light Rain
9:13 AM 42.8 °F 35.1 °F 42.8 °F 100% 30.11 in 1.0 mi WNW 16.1 mph - 0.00 in   Overcast
9:21 AM 42.8 °F 35.1 °F 42.8 °F 100% 30.11 in 1.2 mi WNW 16.1 mph - 0.00 in   Overcast
9:23 AM 42.8 °F 35.4 °F 42.8 °F 100% 30.11 in 0.8 mi WNW 15.0 mph - 0.00 in   Overcast
9:33 AM 42.8 °F 35.4 °F 42.8 °F 100% 30.11 in 1.2 mi West 15.0 mph - 0.00 in Rain Light Rain
9:50 AM 42.8 °F 36.6 °F 42.8 °F 100% 30.12 in 3.0 mi West 11.5 mph - 0.00 in   Overcast
10:01 AM 42.8 °F 35.8 °F 42.8 °F 100% 30.12 in 1.5 mi West 13.8 mph - 0.00 in   Overcast
10:11 AM 42.8 °F 35.1 °F 42.8 °F 100% 30.12 in 3.0 mi West 16.1 mph - 0.00 in   Overcast
10:57 AM 45.0 °F 37.9 °F 44.1 °F 97% 30.14 in 8.0 mi West 16.1 mph - 0.00 in   Overcast
11:57 AM 46.9 °F - 44.1 °F 90% 30.15 in 10.0 mi West 18.4 mph - N/A   Overcast
12:02 PM 46.4 °F 39.2 °F 44.6 °F 93% 30.14 in 10.0 mi West 18.4 mph - N/A   Overcast
12:29 PM 48.2 °F - 44.6 °F 87% 30.14 in 10.0 mi West 18.4 mph - N/A   Scattered Clouds
12:57 PM 50.0 °F - 44.1 °F 80% 30.16 in 10.0 mi West 18.4 mph - N/A   Clear
1:57 PM 52.0 °F - 44.1 °F 74% 30.17 in 10.0 mi West 20.7 mph - N/A   Clear
2:57 PM 53.1 °F - 43.0 °F 69% 30.19 in 10.0 mi WNW 18.4 mph 23.0 mph N/A   Clear
3:57 PM 54.0 °F - 43.0 °F 66% 30.19 in 10.0 mi WNW 20.7 mph 26.5 mph N/A   Clear
4:57 PM 54.0 °F - 42.1 °F 64% 30.20 in 10.0 mi WNW 21.9 mph 27.6 mph N/A   Clear
5:57 PM 55.0 °F - 44.1 °F 67% 30.21 in 10.0 mi WNW 20.7 mph 25.3 mph N/A   Clear
6:57 PM 55.0 °F - 44.1 °F 67% 30.22 in 10.0 mi WNW 19.6 mph 24.2 mph N/A   Clear
7:57 PM 54.0 °F - 43.0 °F 66% 30.22 in 10.0 mi WNW 20.7 mph - N/A   Clear
8:57 PM 53.1 °F - 43.0 °F 69% 30.22 in 10.0 mi WNW 18.4 mph - N/A   Clear
9:57 PM 50.0 °F - 43.0 °F 77% 30.24 in 10.0 mi WNW 15.0 mph - N/A   Clear
10:57 PM 48.9 °F - 41.0 °F 74% 30.25 in 10.0 mi West 12.7 mph - N/A   Clear
11:57 PM 46.0 °F 42.5 °F 41.0 °F 83% 30.25 in 10.0 mi WNW 6.9 mph - N/A   Clear